CW2597 Weather Reports


Display with metric or nautical units.
time (UTC)temp
F
wind
direction
speed
MPH
gust
MPH
rain 1hr
in
rain 24hr
in
rain mn
in
humidity
%
barometer
mb
20260901131704 72 274 2.0 10.0 0.00 0.16 0.01 59 1017.3
20260901131510 72 313 2.0 10.0 0.00 0.01 0.01 58 1016.3
20260901130510 72 301 2.0 11.0 0.00 0.01 0.01 59 1016.3
20260901130205 71 290 4.0 13.0 0.00 0.16 0.01 59 1017.2
20260901125704 71 259 1.0 7.0 0.00 0.16 0.01 61 1017.2
20260901125510 71 231 1.0 8.0 0.00 0.01 0.01 61 1016.4
20260901125205 71 273 2.0 12.0 0.00 0.16 0.01 60 1017.2
20260901124204 72 252 1.0 9.0 0.00 0.16 0.01 63 1017.2
20260901123704 71 231 0.0 8.0 0.00 0.16 0.01 62 1017.2
20260901123510 71 185 0.0 8.0 0.00 0.01 0.01 63 1016.4
20260901123204 70 242 1.0 3.0 0.00 0.16 0.01 66 1017.4
20260901122704 70 249 0.0 2.0 0.00 0.16 0.01 66 1017.4
20260901122510 70 223 0.0 5.0 0.00 0.01 0.01 65 1016.5
20260901122205 70 234 0.0 2.0 0.00 0.16 0.01 64 1017.4
20260901121705 70 284 2.0 10.0 0.00 0.16 0.01 64 1017.4
20260901121511 70 244 2.0 10.0 0.00 0.01 0.01 65 1016.5
20260901121205 69 273 2.0 9.0 0.00 0.16 0.01 68 1017.4
20260901120705 68 228 0.0 0.0 0.00 0.16 0.01 71 1017.4
20260901120510 68 280 0.0 1.0 0.00 0.01 0.01 70 1016.5
20260901120204 68 264 0.0 12.0 0.00 0.16 0.01 70 1017.3
20260901115705 68 279 0.0 1.0 0.00 0.16 0.01 70 1017.4
20260901115510 69 302 0.0 0.0 0.00 0.01 0.01 70 1016.5
20260901114705 70 263 0.0 5.0 0.00 0.16 0.01 73 1017.3
20260901114204 70 218 2.0 12.0 0.00 0.17 0.01 72 1017.2
20260901113704 70 212 1.0 10.0 0.00 0.23 0.01 72 1017.2
20260901113512 70 193 0.0 10.0 0.00 0.01 0.01 73 1016.3
20260901113205 69 217 1.0 7.0 0.00 0.26 0.01 73 1017.2
20260901112512 69 258 0.0 2.0 0.00 0.01 0.01 73 1016.4
20260901112204 69 206 0.0 9.0 0.00 0.26 0.01 73 1017.2
20260901111512 69 206 2.0 11.0 0.00 0.01 0.01 72 1016.3
20260901111204 69 224 3.0 12.0 0.00 0.26 0.01 71 1017.2
20260901110705 69 231 3.0 9.0 0.00 0.26 0.01 70 1017.2
20260901110512 69 239 2.0 11.0 0.00 0.01 0.01 70 1016.3
20260901110204 69 234 2.0 9.0 0.00 0.26 0.01 70 1017.2
20260901105705 70 221 1.0 10.0 0.00 0.26 0.01 71 1017.2
20260901105512 70 212 2.0 10.0 0.00 0.01 0.01 71 1016.3
20260901105204 70 232 0.0 5.0 0.00 0.26 0.01 72 1017.2
20260901104704 70 222 1.0 6.0 0.00 0.26 0.01 72 1017.2
20260901104512 70 235 0.0 6.0 0.00 0.01 0.01 74 1016.2
20260901104205 69 260 0.0 10.0 0.00 0.26 0.01 75 1017.1
20260901103705 69 241 2.0 10.0 0.00 0.26 0.01 72 1017.2
20260901103512 69 198 1.0 11.0 0.00 0.01 0.01 72 1016.3
20260901103204 69 244 1.0 12.0 0.00 0.26 0.01 74 1017.2
20260901102704 69 221 1.0 12.0 0.00 0.26 0.01 75 1017.3
20260901102512 69 221 1.0 11.0 0.00 0.01 0.01 75 1016.4
20260901102205 69 228 0.0 3.0 0.00 0.26 0.01 77 1017.3
20260901101705 68 238 1.0 9.0 0.00 0.26 0.01 76 1017.3
20260901101512 68 225 1.0 10.0 0.00 0.01 0.01 76 1016.4
20260901101204 68 237 1.0 13.0 0.00 0.26 0.01 76 1017.3
20260901100704 69 282 1.0 12.0 0.00 0.26 0.01 77 1017.3
20260901100204 68 269 0.0 3.0 0.00 0.26 0.01 80 1017.2
20260901095704 67 230 1.0 8.0 0.00 0.26 0.01 79 1017.2
20260901095512 67 239 2.0 10.0 0.00 0.01 0.01 79 1016.3
20260901095204 67 250 3.0 10.0 0.00 0.26 0.01 79 1017.2
20260901094704 67 242 1.0 10.0 0.00 0.26 0.01 80 1017.2
20260901094512 67 227 0.0 10.0 0.00 0.01 0.01 80 1016.3
20260901094204 66 218 0.0 3.0 0.00 0.26 0.01 80 1017.1
20260901093704 66 220 0.0 12.0 0.00 0.26 0.01 80 1017.2
20260901093512 66 277 1.0 12.0 0.00 0.01 0.01 80 1016.3
20260901093204 66 232 0.0 8.0 0.00 0.26 0.01 80 1017.2
20260901092705 66 266 1.0 7.0 0.00 0.26 0.01 79 1017.2
20260901092512 67 260 1.0 10.0 0.00 0.01 0.01 79 1016.4
20260901092204 67 232 2.0 9.0 0.00 0.26 0.01 79 1017.2
20260901091704 67 239 0.0 9.0 0.00 0.26 0.01 79 1017.2
20260901091512 67 210 0.0 3.0 0.00 0.01 0.01 80 1016.2
20260901091204 67 242 0.0 0.0 0.00 0.26 0.01 80 1017.1
20260901090704 67 252 1.0 10.0 0.00 0.26 0.01 79 1017.0
20260901090512 67 224 0.0 10.0 0.00 0.01 0.01 80 1016.2
20260901090204 67 244 0.0 5.0 0.00 0.26 0.01 80 1017.0
20260901085704 66 248 0.0 6.0 0.00 0.26 0.01 80 1017.1
20260901085512 67 259 0.0 6.0 0.00 0.01 0.01 81 1016.1
20260901085204 67 240 0.0 8.0 0.00 0.26 0.01 80 1017.0
20260901084512 67 202 0.0 4.0 0.00 0.01 0.01 81 1016.0
20260901084204 67 238 0.0 1.0 0.00 0.26 0.01 83 1016.9
20260901083204 67 230 1.0 5.0 0.00 0.26 0.01 83 1016.8
20260901082704 66 208 0.0 0.0 0.00 0.26 0.01 85 1016.8
20260901082512 66 234 0.0 2.0 0.00 0.01 0.01 85 1015.9
20260901081704 65 213 0.0 0.0 0.00 0.26 0.01 85 1016.8
20260901081512 65 245 0.0 0.0 0.00 0.01 0.01 85 1015.9
20260901081204 65 227 0.0 0.0 0.00 0.26 0.01 85 1016.8
20260901080704 65 222 0.0 2.0 0.00 0.26 0.01 86 1016.8
20260901080512 65 252 0.0 2.0 0.00 0.01 0.01 86 1015.7
20260901080204 65 208 0.0 0.0 0.00 0.26 0.01 86 1016.7
20260901075704 65 247 0.0 0.0 0.00 0.26 0.01 88 1016.6
20260901075512 64 200 0.0 0.0 0.00 0.01 0.01 88 1015.6
20260901075204 64 215 1.0 10.0 0.00 0.26 0.01 88 1016.6
20260901074704 64 217 0.0 6.0 0.00 0.26 0.01 88 1016.5
20260901074512 64 230 1.0 10.0 0.00 0.01 0.01 88 1015.6
20260901074204 64 227 1.0 2.0 0.00 0.26 0.01 89 1016.4
20260901073704 63 235 0.0 5.0 0.00 0.26 0.01 89 1016.4
20260901073205 63 224 0.0 2.0 0.00 0.26 0.01 89 1016.4
20260901072511 63 211 0.0 3.0 0.00 0.01 0.01 89 1015.5
20260901072204 63 241 0.0 3.0 0.00 0.26 0.01 90 1016.3
20260901071511 63 227 0.0 3.0 0.00 0.01 0.01 90 1015.4
20260901071203 62 238 1.0 8.0 0.00 0.26 0.01 90 1016.4
20260901070705 62 229 1.0 7.0 0.00 0.26 0.01 90 1016.3
20260901070512 62 229 0.0 9.0 0.00 0.01 0.01 90 1015.3
20260901070204 62 232 1.0 9.0 0.00 0.26 0.01 90 1016.3
20260901065704 62 222 0.0 1.0 0.00 0.26 0.01 90 1016.3
20260901064704 62 235 0.0 3.0 0.00 0.26 0.01 91 1016.2
20260901063704 62 227 0.0 1.0 0.00 0.26 0.01 91 1016.1
20260901063512 62 185 0.0 3.0 0.00 0.01 0.01 91 1015.1
20260901062704 61 224 1.0 7.0 0.00 0.26 0.01 91 1016.0
20260901062512 61 216 0.0 4.0 0.00 0.01 0.01 91 1015.1
20260901062205 61 245 0.0 1.0 0.00 0.26 0.01 91 1015.9
20260901061704 61 222 0.0 0.0 0.00 0.26 0.01 92 1015.9
20260901061511 61 229 0.0 0.0 0.00 0.01 0.01 92 1015.0
20260901060704 61 227 0.0 3.0 0.00 0.26 0.01 92 1015.8
20260901060511 61 240 0.0 3.0 0.00 0.01 0.01 92 1014.9
20260901060204 61 220 0.0 3.0 0.00 0.26 0.01 92 1015.8
20260901055703 61 211 0.0 1.0 0.00 0.26 0.01 92 1015.7
20260901055511 60 202 0.0 1.0 0.00 0.01 0.01 92 1014.8
20260901055204 60 221 0.0 0.0 0.00 0.26 0.01 92 1015.7
20260901054704 60 202 0.0 3.0 0.00 0.26 0.01 92 1015.7
20260901054511 60 235 0.0 4.0 0.00 0.01 0.01 92 1014.8
20260901054203 60 220 1.0 3.0 0.00 0.26 0.01 92 1015.7
20260901053704 60 230 1.0 3.0 0.00 0.26 0.01 92 1015.6
20260901053511 60 211 0.0 3.0 0.00 0.01 0.01 92 1014.7
20260901053204 60 222 0.0 3.0 0.00 0.26 0.01 92 1015.6
20260901052704 60 237 1.0 7.0 0.00 0.26 0.01 92 1015.5
20260901052511 60 228 0.0 7.0 0.00 0.01 0.01 92 1014.6
20260901052205 60 223 0.0 1.0 0.00 0.26 0.01 92 1015.5
20260901051704 60 225 0.0 0.0 0.00 0.26 0.01 92 1015.4
20260901051511 60 227 0.0 0.0 0.00 0.01 0.01 92 1014.5
20260901051204 60 227 0.0 0.0 0.00 0.26 0.01 92 1015.4
20260901050706 60 237 0.0 0.0 0.00 0.26 0.01 92 1015.3
20260901050512 60 214 0.0 0.0 0.00 0.01 0.01 92 1014.4
20260901050205 60 234 0.0 0.0 0.00 0.26 0.01 92 1015.3
20260901045705 60 192 0.0 1.0 0.00 0.26 0.01 92 1015.3
20260901045511 60 230 0.0 0.0 0.00 0.01 0.01 92 1014.4
20260901045206 60 218 0.0 2.0 0.00 0.26 0.01 92 1015.3
20260901044705 60 206 0.0 3.0 0.00 0.26 0.01 92 1015.2
20260901044205 60 242 1.0 5.0 0.00 0.26 0.01 92 1015.2
20260901043705 60 227 0.0 0.0 0.01 0.26 0.01 91 1015.2
20260901043511 60 233 0.0 0.0 0.01 0.01 0.01 91 1014.2
20260901042706 59 231 0.0 0.0 0.01 0.26 0.01 91 1015.1
20260901042512 59 187 0.0 0.0 0.01 0.01 0.01 91 1014.0
20260901042206 59 219 0.0 0.0 0.01 0.26 0.01 91 1015.0
20260901041706 59 223 0.0 0.0 0.01 0.26 0.01 91 1015.0
20260901041206 59 231 0.0 0.0 0.01 0.26 0.01 91 1014.9
20260901040706 59 250 0.0 0.0 0.01 0.26 0.01 91 1014.8
20260901040512 60 239 0.0 0.0 0.01 0.01 0.01 91 1013.9
20260901040205 59 220 0.0 3.0 0.01 0.26 0.01 91 1014.9
20260901035511 60 231 0.0 1.0 0.01 0.01 0.01 90 1013.9
20260901035206 60 244 0.0 0.0 0.01 0.26 0.01 90 1014.9
20260901034511 60 212 0.0 0.0 0.01 0.01 0.01 90 1013.9
20260901034206 60 241 0.0 0.0 0.01 0.26 0.01 90 1014.7
20260901033706 60 230 0.0 3.0 0.00 0.25 0.00 90 1014.8
20260901033512 60 236 0.0 4.0 0.00 0.00 0.00 90 1013.8
20260901033205 60 242 1.0 3.0 0.00 0.25 0.00 91 1014.8
20260901032705 60 218 0.0 3.0 0.00 0.25 0.00 92 1014.7
20260901032206 60 223 0.0 2.0 0.00 0.25 0.00 90 1014.7
20260901031706 60 235 0.0 0.0 0.00 0.25 0.00 90 1014.7
20260901031205 60 237 0.0 0.0 0.00 0.25 0.00 90 1014.7
20260901030706 60 242 0.0 0.0 0.00 0.25 0.00 90 1014.7
20260901030511 60 233 0.0 0.0 0.00 0.00 0.00 90 1013.7
20260901030205 60 248 0.0 0.0 0.00 0.25 0.00 90 1014.7
20260901025705 60 250 0.0 0.0 0.00 0.25 0.00 90 1014.7
20260901025511 60 235 0.0 0.0 0.00 0.00 0.00 90 1013.7
20260901025205 60 221 0.0 0.0 0.00 0.25 0.00 90 1014.7
20260901024706 60 235 0.0 0.0 0.00 0.25 0.00 90 1014.7
20260901024511 60 210 0.0 0.0 0.00 0.00 0.00 90 1013.8
20260901024206 60 226 0.0 0.0 0.00 0.25 0.00 90 1014.6
20260901023706 60 239 0.0 0.0 0.00 0.25 0.00 90 1014.6
20260901023511 60 251 0.0 0.0 0.00 0.00 0.00 90 1013.7
20260901023205 60 220 0.0 0.0 0.00 0.25 0.00 90 1014.6
20260901022705 60 224 0.0 0.0 0.00 0.25 0.00 90 1014.6
20260901022206 60 219 0.0 0.0 0.00 0.25 0.00 90 1014.7
20260901021512 60 231 0.0 0.0 0.00 0.00 0.00 91 1013.7
20260901021205 60 226 0.0 0.0 0.00 0.25 0.00 91 1014.6
20260901020705 59 215 0.0 0.0 0.00 0.25 0.00 91 1014.5
20260901020511 60 234 0.0 0.0 0.00 0.00 0.00 91 1013.6
20260901015705 60 253 0.0 0.0 0.00 0.25 0.00 90 1014.5
20260901015205 60 222 0.0 0.0 0.00 0.25 0.00 90 1014.5
20260901014705 60 224 0.0 0.0 0.00 0.25 0.00 90 1014.5
20260901014511 60 250 0.0 0.0 0.00 0.00 0.00 90 1013.5
20260901014206 60 231 0.0 1.0 0.00 0.25 0.00 90 1014.4
20260901013706 60 219 0.0 0.0 0.00 0.25 0.00 90 1014.4
20260901013206 60 234 0.0 0.0 0.00 0.25 0.00 90 1014.3
20260901012705 60 231 0.0 2.0 0.00 0.25 0.00 90 1014.3
20260901012511 60 213 0.0 2.0 0.00 0.00 0.00 90 1013.3
20260901011511 60 219 0.0 1.0 0.00 0.00 0.00 90 1013.2
20260901011205 60 233 0.0 0.0 0.00 0.25 0.00 91 1014.2
20260901010705 60 220 0.0 0.0 0.00 0.25 0.00 90 1014.2
20260901010511 60 212 0.0 3.0 0.00 0.00 0.00 90 1013.2
20260901010205 60 246 0.0 3.0 0.00 0.25 0.00 90 1014.1
20260901005511 60 207 0.0 0.0 0.00 0.00 0.00 90 1013.1
20260901005206 60 215 0.0 0.0 0.00 0.25 0.00 90 1014.0
20260901004705 60 221 0.0 2.0 0.00 0.25 0.00 90 1014.1
20260901004511 60 233 0.0 2.0 0.00 0.00 0.00 90 1013.1
20260901004205 60 243 0.0 1.0 0.00 0.25 0.00 90 1014.1
20260901003705 60 226 0.0 0.0 0.00 0.25 0.00 90 1014.0
20260901003511 60 276 0.0 0.0 0.00 0.00 0.00 90 1013.0
20260901003205 60 229 0.0 0.0 0.00 0.25 0.00 90 1014.0
20260901002705 60 222 0.0 0.0 0.00 0.25 0.00 90 1013.9
20260901002511 60 248 0.0 0.0 0.00 0.00 0.00 90 1013.0
20260901002205 61 228 0.0 0.0 0.00 0.25 0.00 90 1013.8
20260901001706 61 227 0.0 5.0 0.00 0.25 0.00 89 1013.8
20260901001511 61 223 0.0 0.0 0.00 0.00 0.00 89 1012.9
20260901001205 61 238 0.0 2.0 0.00 0.25 0.00 89 1013.8
20260901000705 61 233 0.0 1.0 0.00 0.25 0.00 89 1013.8
20260901000511 61 255 0.0 1.0 0.00 0.00 0.00 89 1012.9
20260901000205 61 231 0.0 0.0 0.00 0.25 0.00 89 1013.8
20260831235705 61 218 0.0 3.0 0.00 0.25 0.00 89 1013.8
20260831235511 61 251 0.0 3.0 0.00 0.00 0.00 89 1012.9
20260831235206 61 229 1.0 6.0 0.00 0.25 0.00 89 1013.7
20260831234705 61 233 0.0 0.0 0.00 0.25 0.00 89 1013.7
20260831234511 61 238 0.0 0.0 0.00 0.00 0.00 89 1012.8
20260831234205 61 229 0.0 0.0 0.00 0.25 0.00 89 1013.7
20260831233706 61 215 0.0 2.0 0.00 0.25 0.00 89 1013.6
20260831233511 61 220 0.0 0.0 0.00 0.00 0.00 89 1012.7
20260831233205 61 219 0.0 0.0 0.00 0.25 0.00 89 1013.6
20260831232705 61 234 0.0 2.0 0.00 0.25 0.00 89 1013.5
20260831232511 61 245 0.0 3.0 0.00 0.00 0.00 89 1012.6
20260831232206 61 243 0.0 7.0 0.00 0.25 0.00 89 1013.5
20260831231706 61 231 0.0 2.0 0.00 0.25 0.00 89 1013.4
20260831231205 61 238 0.0 2.0 0.00 0.25 0.00 89 1013.4
20260831230511 61 244 0.0 3.0 0.00 0.00 0.00 89 1012.5
20260831230206 61 253 0.0 0.0 0.00 0.25 0.00 89 1013.4
20260831225705 61 226 0.0 1.0 0.00 0.25 0.00 89 1013.4
20260831225511 62 263 0.0 1.0 0.00 0.00 0.00 89 1012.5
20260831225205 62 245 0.0 0.0 0.00 0.25 0.00 89 1013.4
20260831224705 62 219 0.0 3.0 0.00 0.25 0.00 89 1013.4
20260831224511 62 239 0.0 3.0 0.00 0.00 0.00 89 1012.4
20260831224205 62 250 0.0 3.0 0.00 0.25 0.00 89 1013.4
20260831223705 62 264 0.0 6.0 0.00 0.25 0.00 89 1013.3
20260831223511 62 237 1.0 9.0 0.00 0.00 0.00 89 1012.4
20260831223205 62 232 1.0 9.0 0.00 0.25 0.00 89 1013.3
20260831222705 62 242 1.0 6.0 0.00 0.25 0.00 89 1013.3
20260831222511 62 222 0.0 6.0 0.00 0.00 0.00 89 1012.4
20260831221705 62 239 0.0 3.0 0.00 0.25 0.00 88 1013.2
20260831221511 62 234 0.0 1.0 0.00 0.00 0.00 88 1012.3
20260831221205 62 241 0.0 3.0 0.00 0.25 0.00 88 1013.2
20260831220705 62 250 0.0 5.0 0.00 0.25 0.00 88 1013.2
20260831220205 62 235 1.0 5.0 0.00 0.25 0.00 88 1013.1
20260831215705 62 250 0.0 3.0 0.00 0.25 0.25 88 1013.2
20260831215511 62 256 0.0 2.0 0.00 0.25 0.25 88 1012.3
20260831215205 62 242 0.0 10.0 0.00 0.25 0.25 88 1013.1
20260831214706 62 254 2.0 8.0 0.00 0.25 0.25 88 1013.1
20260831214511 62 251 0.0 6.0 0.00 0.25 0.25 88 1012.1
20260831214205 62 242 0.0 10.0 0.00 0.25 0.25 88 1013.0
20260831213705 62 238 0.0 7.0 0.00 0.25 0.25 88 1013.0
20260831213205 62 260 0.0 2.0 0.00 0.25 0.25 88 1012.9
20260831212705 62 239 1.0 8.0 0.00 0.25 0.25 88 1012.8
20260831212511 62 252 1.0 10.0 0.00 0.25 0.25 88 1012.0
20260831212205 62 228 0.0 6.0 0.00 0.25 0.25 88 1012.8
20260831211511 62 241 0.0 10.0 0.00 0.25 0.25 88 1011.8
20260831211205 62 269 1.0 8.0 0.00 0.25 0.25 88 1012.7
20260831210705 62 241 1.0 12.0 0.00 0.25 0.25 88 1012.5
20260831210511 62 248 1.0 11.0 0.00 0.25 0.25 88 1011.6
20260831205705 62 248 1.0 9.0 0.00 0.25 0.25 88 1012.5
20260831205511 62 248 1.0 9.0 0.00 0.25 0.25 88 1011.6
20260831205205 62 259 1.0 7.0 0.00 0.25 0.25 88 1012.4
20260831204705 62 237 0.0 7.0 0.00 0.25 0.25 88 1012.4
20260831203705 62 235 0.0 3.0 0.00 0.25 0.25 88 1012.2
20260831203511 62 208 0.0 3.0 0.00 0.25 0.25 88 1011.2
20260831203205 62 229 0.0 6.0 0.00 0.25 0.25 87 1012.1
20260831202706 62 242 1.0 8.0 0.00 0.25 0.25 87 1012.1
20260831202511 62 262 0.0 1.0 0.00 0.25 0.25 87 1011.1
20260831202205 62 233 0.0 2.0 0.00 0.25 0.25 87 1012.0
20260831201705 62 236 0.0 5.0 0.00 0.25 0.25 87 1012.0
20260831201511 62 250 0.0 4.0 0.00 0.25 0.25 87 1011.1
20260831201205 62 249 0.0 10.0 0.02 0.25 0.25 87 1011.9
20260831200705 62 228 1.0 9.0 0.02 0.25 0.25 87 1011.9
20260831200511 62 289 0.0 9.0 0.02 0.25 0.25 87 1011.0
20260831200205 62 250 1.0 9.0 0.02 0.25 0.25 87 1011.8
20260831195705 62 251 0.0 1.0 0.02 0.25 0.25 87 1011.8
20260831195511 62 285 0.0 9.0 0.02 0.25 0.25 87 1010.8
20260831195205 62 249 1.0 6.0 0.02 0.25 0.25 87 1011.6
20260831194705 62 241 0.0 3.0 0.02 0.25 0.25 87 1011.5
20260831194511 62 283 0.0 10.0 0.02 0.25 0.25 87 1010.6
20260831194205 62 223 1.0 10.0 0.02 0.25 0.25 87 1011.5
20260831193705 62 245 0.0 5.0 0.02 0.25 0.25 87 1011.4
20260831193511 62 262 0.0 5.0 0.02 0.25 0.25 87 1010.5
20260831193205 62 245 1.0 8.0 0.02 0.25 0.25 87 1011.3
20260831192705 62 235 0.0 1.0 0.02 0.25 0.25 88 1011.3
20260831191705 62 221 0.0 2.0 0.02 0.25 0.25 87 1011.2
20260831191510 62 258 0.0 2.0 0.02 0.25 0.25 87 1010.2
20260831191205 62 224 0.0 3.0 0.00 0.23 0.23 87 1011.1
20260831190705 62 230 0.0 0.0 0.00 0.23 0.23 87 1011.0
20260831190510 62 209 0.0 0.0 0.00 0.23 0.23 87 1010.2
20260831190205 62 216 0.0 2.0 0.00 0.23 0.23 87 1011.1
20260831185705 62 242 0.0 2.0 0.00 0.23 0.23 87 1010.9
20260831185510 62 228 0.0 2.0 0.00 0.23 0.23 87 1010.0
20260831184705 62 250 0.0 2.0 0.00 0.23 0.23 88 1010.7
20260831184511 62 212 0.0 2.0 0.00 0.23 0.23 88 1009.8
20260831184204 62 236 0.0 1.0 0.00 0.23 0.23 88 1010.7
20260831183704 62 232 0.0 0.0 0.00 0.23 0.23 88 1010.6
20260831183510 62 223 0.0 0.0 0.00 0.23 0.23 88 1009.6
20260831183205 62 238 0.0 0.0 0.00 0.23 0.23 88 1010.5
20260831182705 62 226 0.0 0.0 0.02 0.23 0.23 88 1010.4
20260831182510 62 240 0.0 0.0 0.02 0.23 0.23 88 1009.5
20260831182205 62 220 0.0 0.0 0.03 0.23 0.23 88 1010.3
20260831181705 62 218 0.0 0.0 0.03 0.23 0.23 88 1010.3
20260831181511 62 237 0.0 0.0 0.03 0.23 0.23 87 1009.4
20260831181205 62 226 0.0 0.0 0.03 0.23 0.23 87 1010.3
20260831180510 62 234 0.0 0.0 0.03 0.23 0.23 87 1009.4
20260831180205 62 248 0.0 0.0 0.03 0.23 0.23 87 1010.3
20260831175705 62 228 0.0 2.0 0.03 0.23 0.23 87 1010.2
20260831175511 62 229 0.0 2.0 0.03 0.23 0.23 87 1009.3
20260831174704 62 232 0.0 5.0 0.03 0.23 0.23 86 1010.1
20260831174205 63 233 0.0 0.0 0.03 0.23 0.23 86 1010.1
20260831173705 63 230 0.0 0.0 0.03 0.23 0.23 84 1010.1
20260831173204 63 249 0.0 1.0 0.03 0.23 0.23 83 1010.0
20260831172705 64 209 4.0 12.0 0.02 0.21 0.21 80 1009.9
20260831172510 64 232 1.0 12.0 0.01 0.20 0.20 80 1009.0
20260831171205 65 213 0.0 2.0 0.00 0.20 0.20 76 1009.7
20260831170704 65 236 0.0 0.0 0.00 0.20 0.20 76 1009.7
20260831170510 65 228 0.0 0.0 0.00 0.20 0.20 76 1008.8
20260831165704 65 236 1.0 10.0 0.00 0.20 0.20 75 1009.6
20260831165510 65 231 2.0 10.0 0.00 0.20 0.20 75 1008.7
20260831165205 65 217 1.0 8.0 0.00 0.20 0.20 75 1009.6
20260831164704 65 245 0.0 2.0 0.00 0.20 0.20 75 1009.5
20260831164511 65 258 0.0 1.0 0.00 0.20 0.20 75 1008.5
20260831163510 65 292 1.0 10.0 0.00 0.20 0.20 75 1008.4
20260831163205 65 250 0.0 8.0 0.00 0.20 0.20 76 1009.3
20260831162705 65 226 0.0 0.0 0.00 0.20 0.20 77 1009.2
20260831162510 65 252 0.0 1.0 0.00 0.20 0.20 77 1008.3
20260831162205 65 245 0.0 1.0 0.00 0.20 0.20 76 1009.1
20260831161705 65 230 1.0 10.0 0.00 0.20 0.20 78 1009.1
20260831161511 65 225 1.0 10.0 0.00 0.20 0.20 78 1008.2
20260831161204 65 225 0.0 3.0 0.00 0.20 0.20 80 1009.1
20260831160705 64 232 0.0 3.0 0.00 0.20 0.20 81 1009.0
20260831160204 64 231 0.0 3.0 0.00 0.20 0.20 80 1009.0
20260831155705 64 238 0.0 5.0 0.00 0.20 0.20 81 1008.9
20260831155511 64 240 0.0 5.0 0.00 0.20 0.20 81 1008.0
20260831155205 64 234 0.0 2.0 0.00 0.20 0.20 82 1008.9
20260831154705 63 212 0.0 6.0 0.00 0.20 0.20 83 1008.9
20260831154510 63 236 0.0 7.0 0.00 0.20 0.20 83 1007.9
20260831153705 63 222 0.0 0.0 0.02 0.20 0.20 85 1008.8
20260831153510 63 243 0.0 0.0 0.04 0.20 0.20 85 1007.9
20260831153204 62 233 0.0 0.0 0.08 0.20 0.20 85 1008.7
20260831152704 62 235 0.0 2.0 0.09 0.20 0.20 85 1008.6
20260831152510 62 229 0.0 2.0 0.09 0.20 0.20 86 1007.7
20260831152205 62 250 0.0 2.0 0.09 0.20 0.20 86 1008.5
20260831151705 62 230 0.0 5.0 0.09 0.20 0.20 86 1008.4
20260831151511 62 210 1.0 9.0 0.09 0.20 0.20 86 1007.4
20260831151205 62 210 1.0 7.0 0.09 0.20 0.20 87 1008.4
20260831150705 62 223 1.0 3.0 0.09 0.20 0.20 88 1008.6
20260831150510 62 252 0.0 3.0 0.09 0.20 0.20 88 1007.7
20260831150204 61 227 0.0 6.0 0.09 0.20 0.20 88 1008.7
20260831145705 61 209 1.0 7.0 0.09 0.20 0.20 87 1008.6
20260831145510 61 217 0.0 7.0 0.09 0.20 0.20 87 1007.6
20260831144704 61 225 0.0 7.0 0.09 0.20 0.20 85 1008.5
20260831144510 61 216 0.0 8.0 0.09 0.20 0.20 85 1007.5
20260831144205 62 239 1.0 7.0 0.09 0.19 0.19 84 1008.6
20260831143705 62 253 0.0 6.0 0.08 0.18 0.18 83 1008.3
20260831143510 62 283 1.0 12.0 0.06 0.16 0.16 82 1007.1
20260831143204 63 276 2.0 14.0 0.02 0.13 0.12 80 1008.2
20260831142511 65 285 0.0 9.0 0.00 0.10 0.10 78 1007.1
20260831142205 65 291 0.0 1.0 0.00 0.11 0.10 76 1007.9
20260831141704 67 312 0.0 15.0 0.00 0.11 0.10 74 1008.0
20260831141510 67 288 2.0 15.0 0.00 0.10 0.10 72 1007.1
20260831141204 69 281 3.0 17.0 0.00 0.11 0.10 72 1007.9
20260831140510 70 198 1.0 7.0 0.00 0.10 0.10 74 1006.5
20260831140205 70 209 2.0 9.0 0.00 0.11 0.10 73 1007.5
20260831135704 70 213 0.0 1.0 0.00 0.11 0.10 73 1007.5
20260831135205 70 190 0.0 10.0 0.00 0.11 0.10 74 1007.6
20260831134704 70 214 1.0 6.0 0.00 0.11 0.10 73 1007.5
20260831134510 70 194 1.0 12.0 0.00 0.10 0.10 73 1006.6
20260831134205 70 204 1.0 12.0 0.00 0.11 0.10 74 1007.5
20260831133704 70 170 3.0 10.0 0.00 0.11 0.10 72 1007.5
20260831132205 70 177 0.0 7.0 0.00 0.11 0.10 70 1007.5